BTK7513 WIHH-WARR

Flight info

Callsign BTK7513
Flight time 0h 58m
Altitude 35000
Route CA T3 BA
Aircraft A320/M-SDE3FGHIRWY/LB1

Departure

Time 2026-05-08 03:16
Airport Halim Perdanakusuma International Airport (WIHH)

Arrival

Time 2026-05-08 04:15
Airport Juanda International Airport (WARR)
Time Latitude Longitude Altitude Speed Heading
2026-05-08 02:55 -6.26646 106.88529 95 ft 0 kts 334°
2026-05-08 03:06 -6.26661 106.88536 96 ft 4 kts 337°
2026-05-08 03:06 -6.26686 106.88544 94 ft 4 kts 359°
2026-05-08 03:07 -6.26706 106.88538 96 ft 2 kts 63°
2026-05-08 03:07 -6.26707 106.88536 96 ft 0 kts 65°
2026-05-08 03:10 -6.26692 106.88569 94 ft 10 kts 65°
2026-05-08 03:11 -6.26658 106.88643 94 ft 12 kts 65°
2026-05-08 03:11 -6.26626 106.88712 95 ft 10 kts 65°
2026-05-08 03:11 -6.26599 106.88770 95 ft 8 kts 65°
2026-05-08 03:11 -6.26575 106.88820 95 ft 9 kts 65°
2026-05-08 03:12 -6.26541 106.88894 94 ft 14 kts 65°
2026-05-08 03:12 -6.26497 106.88994 95 ft 16 kts 75°
2026-05-08 03:12 -6.26525 106.89098 95 ft 16 kts 110°
2026-05-08 03:12 -6.26565 106.89205 96 ft 17 kts 110°
2026-05-08 03:13 -6.26562 106.89326 96 ft 20 kts 69°
2026-05-08 03:13 -6.26496 106.89470 95 ft 25 kts 65°
2026-05-08 03:13 -6.26417 106.89642 96 ft 29 kts 65°
2026-05-08 03:13 -6.26327 106.89839 96 ft 33 kts 65°
2026-05-08 03:14 -6.26231 106.90046 97 ft 33 kts 65°
2026-05-08 03:14 -6.26160 106.90184 97 ft 19 kts 51°
2026-05-08 03:14 -6.26085 106.90276 99 ft 16 kts 95°
2026-05-08 03:14 -6.26122 106.90282 97 ft 6 kts 253°
2026-05-08 03:15 -6.26128 106.90266 97 ft 0 kts 244°
2026-05-08 03:15 -6.26129 106.90265 96 ft 2 kts 244°
2026-05-08 03:15 -6.26193 106.90130 97 ft 43 kts 245°
2026-05-08 03:15 -6.26422 106.89630 96 ft 111 kts 245°
2026-05-08 03:16 -6.26826 106.88752 97 ft 163 kts 245°
2026-05-08 03:16 -6.27321 106.87674 644 ft 169 kts 244°
2026-05-08 03:16 -6.27805 106.86606 1419 ft 167 kts 244°
2026-05-08 03:16 -6.28296 106.85533 2047 ft 174 kts 244°
2026-05-08 03:17 -6.28831 106.84363 2350 ft 195 kts 244°
2026-05-08 03:17 -6.29505 106.83097 2595 ft 217 kts 229°
2026-05-08 03:17 -6.30741 106.82120 2938 ft 239 kts 209°
2026-05-08 03:17 -6.32248 106.81225 3379 ft 262 kts 209°
2026-05-08 03:18 -6.33844 106.80277 4147 ft 270 kts 209°
2026-05-08 03:18 -6.35565 106.79514 4981 ft 273 kts 187°
2026-05-08 03:18 -6.37432 106.79738 5817 ft 274 kts 153°
2026-05-08 03:18 -6.38891 106.80933 6654 ft 274 kts 127°
2026-05-08 03:19 -6.39916 106.82556 7516 ft 276 kts 117°
2026-05-08 03:19 -6.40771 106.84297 8348 ft 279 kts 115°
2026-05-08 03:19 -6.41526 106.86108 9132 ft 283 kts 105°
2026-05-08 03:19 -6.41853 106.88072 9900 ft 287 kts 95°
2026-05-08 03:20 -6.42096 106.90075 10630 ft 292 kts 98°
2026-05-08 03:20 -6.42442 106.92164 10895 ft 314 kts 100°
2026-05-08 03:20 -6.42862 106.94402 11074 ft 337 kts 101°
2026-05-08 03:20 -6.43326 106.96762 11502 ft 349 kts 101°
2026-05-08 03:21 -6.43799 106.99172 12117 ft 354 kts 101°
2026-05-08 03:21 -6.44372 107.01592 12735 ft 358 kts 106°
2026-05-08 03:21 -6.45068 107.04009 13365 ft 362 kts 106°
2026-05-08 03:21 -6.45765 107.06451 13988 ft 365 kts 106°
2026-05-08 03:22 -6.46454 107.08882 14604 ft 368 kts 106°
2026-05-08 03:22 -6.47158 107.11368 15206 ft 371 kts 106°
2026-05-08 03:22 -6.47869 107.13876 15790 ft 374 kts 106°
2026-05-08 03:22 -6.48585 107.16403 16373 ft 377 kts 106°
2026-05-08 03:23 -6.49306 107.18953 16904 ft 381 kts 106°
2026-05-08 03:23 -6.50031 107.21525 17426 ft 384 kts 106°
2026-05-08 03:23 -6.50764 107.24116 17947 ft 387 kts 106°
2026-05-08 03:23 -6.51503 107.26725 18465 ft 390 kts 106°
2026-05-08 03:24 -6.52248 107.29355 18936 ft 393 kts 106°
2026-05-08 03:24 -6.52999 107.32009 19391 ft 396 kts 106°
2026-05-08 03:24 -6.53756 107.34685 19826 ft 400 kts 106°
2026-05-08 03:24 -6.54520 107.37389 20261 ft 403 kts 106°
2026-05-08 03:25 -6.55288 107.40111 20683 ft 406 kts 106°
2026-05-08 03:25 -6.56063 107.42854 21102 ft 409 kts 106°
2026-05-08 03:25 -6.56740 107.45642 21500 ft 412 kts 99°
2026-05-08 03:25 -6.57096 107.48515 21878 ft 416 kts 97°
2026-05-08 03:26 -6.57437 107.51410 22268 ft 418 kts 97°
2026-05-08 03:26 -6.57782 107.54323 22644 ft 421 kts 97°
2026-05-08 03:26 -6.58131 107.57256 23003 ft 424 kts 97°
2026-05-08 03:26 -6.58482 107.60208 23368 ft 427 kts 97°
2026-05-08 03:27 -6.58836 107.63179 23717 ft 429 kts 97°
2026-05-08 03:27 -6.59192 107.66169 24054 ft 432 kts 97°
2026-05-08 03:27 -6.59552 107.69179 24395 ft 435 kts 97°
2026-05-08 03:27 -6.59915 107.72204 24734 ft 437 kts 97°
2026-05-08 03:28 -6.60278 107.75246 25062 ft 439 kts 97°
2026-05-08 03:28 -6.60640 107.78302 25387 ft 441 kts 97°
2026-05-08 03:28 -6.61005 107.81374 25705 ft 443 kts 97°
2026-05-08 03:28 -6.61371 107.84458 26014 ft 445 kts 97°
2026-05-08 03:29 -6.61615 107.86508 26225 ft 446 kts 97°
2026-05-08 03:29 -6.61986 107.89611 26523 ft 448 kts 97°
2026-05-08 03:29 -6.62357 107.92726 26804 ft 450 kts 97°
2026-05-08 03:29 -6.62844 107.96880 27170 ft 453 kts 97°
2026-05-08 03:30 -6.63587 108.03195 27744 ft 456 kts 97°
2026-05-08 03:30 -6.64224 108.08523 28194 ft 459 kts 97°
2026-05-08 03:31 -6.64983 108.14925 28691 ft 463 kts 97°
2026-05-08 03:31 -6.65747 108.21375 29156 ft 466 kts 97°
2026-05-08 03:32 -6.66131 108.24619 29381 ft 468 kts 97°
2026-05-08 03:32 -6.66510 108.27836 29602 ft 470 kts 97°
2026-05-08 03:32 -6.66891 108.31104 29830 ft 471 kts 97°
2026-05-08 03:32 -6.67277 108.34420 30059 ft 473 kts 97°
2026-05-08 03:33 -6.67656 108.37662 30296 ft 474 kts 97°
2026-05-08 03:33 -6.68041 108.40948 30612 ft 473 kts 97°
2026-05-08 03:33 -6.68427 108.44227 30914 ft 472 kts 97°
2026-05-08 03:33 -6.68816 108.47550 31211 ft 472 kts 97°
2026-05-08 03:34 -6.69194 108.50787 31501 ft 471 kts 97°
2026-05-08 03:34 -6.69578 108.54060 31803 ft 471 kts 97°
2026-05-08 03:34 -6.69969 108.57329 32097 ft 471 kts 97°
2026-05-08 03:34 -6.70421 108.60633 32395 ft 470 kts 98°
2026-05-08 03:35 -6.70921 108.63881 32690 ft 470 kts 99°
2026-05-08 03:35 -6.71441 108.67076 32982 ft 469 kts 99°
2026-05-08 03:35 -6.71975 108.70310 33304 ft 468 kts 99°
2026-05-08 03:35 -6.72498 108.73536 33636 ft 467 kts 99°
2026-05-08 03:36 -6.73005 108.76756 33964 ft 466 kts 98°
2026-05-08 03:36 -6.73502 108.79971 34262 ft 465 kts 98°
2026-05-08 03:36 -6.73993 108.83185 34528 ft 465 kts 98°
2026-05-08 03:36 -6.74484 108.86401 34768 ft 465 kts 98°
2026-05-08 03:37 -6.74970 108.89621 34865 ft 465 kts 98°
2026-05-08 03:37 -6.75941 108.96053 34877 ft 465 kts 98°
2026-05-08 03:38 -6.76929 109.02479 34878 ft 465 kts 98°
2026-05-08 03:38 -6.77923 109.08908 34878 ft 465 kts 98°
2026-05-08 03:39 -6.78909 109.15345 34881 ft 466 kts 98°
2026-05-08 03:39 -6.79885 109.21790 34877 ft 466 kts 98°
2026-05-08 03:40 -6.80865 109.28232 34877 ft 466 kts 98°
2026-05-08 03:40 -6.81853 109.34677 34871 ft 466 kts 98°
2026-05-08 03:41 -6.82836 109.41114 34866 ft 465 kts 98°
2026-05-08 03:41 -6.83808 109.47550 34862 ft 465 kts 98°
2026-05-08 03:42 -6.84782 109.53986 34861 ft 465 kts 98°
2026-05-08 03:42 -6.85765 109.60424 34862 ft 466 kts 98°
2026-05-08 03:43 -6.86748 109.66865 34863 ft 466 kts 99°
2026-05-08 03:43 -6.87727 109.73313 34869 ft 466 kts 98°
2026-05-08 03:44 -6.88692 109.79767 34874 ft 467 kts 98°
2026-05-08 03:44 -6.89666 109.86222 34876 ft 467 kts 98°
2026-05-08 03:45 -6.90649 109.92675 34866 ft 466 kts 98°
2026-05-08 03:45 -6.91615 109.99091 34855 ft 467 kts 98°
2026-05-08 03:46 -6.92590 110.05548 34850 ft 467 kts 98°
2026-05-08 03:46 -6.93561 110.12008 34849 ft 467 kts 98°
2026-05-08 03:47 -6.94537 110.18471 34850 ft 467 kts 99°
2026-05-08 03:47 -6.95520 110.24986 34853 ft 468 kts 98°
2026-05-08 03:48 -6.96485 110.31417 34855 ft 468 kts 98°
2026-05-08 03:48 -6.97414 110.37899 34856 ft 468 kts 95°
2026-05-08 03:49 -6.97591 110.44443 34856 ft 468 kts 91°
2026-05-08 03:49 -6.97708 110.50989 34856 ft 468 kts 91°
2026-05-08 03:50 -6.97828 110.57531 34854 ft 468 kts 91°
2026-05-08 03:50 -6.97942 110.64074 34852 ft 467 kts 91°
2026-05-08 03:51 -6.98052 110.70620 34329 ft 468 kts 91°
2026-05-08 03:51 -6.98110 110.73889 33832 ft 467 kts 91°
2026-05-08 03:51 -6.98169 110.77165 33328 ft 468 kts 91°
2026-05-08 03:51 -6.98225 110.80432 32830 ft 468 kts 91°
2026-05-08 03:52 -6.98282 110.83713 32329 ft 469 kts 91°
2026-05-08 03:52 -6.98340 110.87002 31829 ft 471 kts 91°
2026-05-08 03:52 -6.98398 110.90299 31328 ft 472 kts 91°
2026-05-08 03:52 -6.98454 110.93608 30858 ft 472 kts 91°
2026-05-08 03:53 -6.98509 110.96902 30408 ft 470 kts 91°
2026-05-08 03:53 -6.98566 111.00179 29958 ft 467 kts 91°
2026-05-08 03:53 -6.98622 111.03434 29507 ft 464 kts 91°
2026-05-08 03:53 -6.98679 111.06669 29054 ft 461 kts 91°
2026-05-08 03:54 -6.98736 111.09883 28606 ft 458 kts 91°
2026-05-08 03:54 -6.98793 111.13075 28170 ft 455 kts 91°
2026-05-08 03:54 -6.98852 111.16248 27732 ft 452 kts 91°
2026-05-08 03:54 -6.98910 111.19399 27282 ft 449 kts 91°
2026-05-08 03:55 -6.98961 111.22528 26832 ft 446 kts 91°
2026-05-08 03:55 -6.99009 111.25636 26381 ft 442 kts 91°
2026-05-08 03:55 -6.99055 111.28720 25931 ft 439 kts 91°
2026-05-08 03:55 -6.99103 111.31783 25481 ft 436 kts 91°
2026-05-08 03:56 -6.99154 111.34824 25060 ft 433 kts 91°
2026-05-08 03:56 -6.99206 111.37847 24660 ft 431 kts 91°
2026-05-08 03:56 -6.99299 111.40849 24259 ft 428 kts 96°
2026-05-08 03:56 -6.99798 111.43784 23856 ft 424 kts 105°
2026-05-08 03:57 -7.00602 111.46632 23459 ft 422 kts 106°
2026-05-08 03:57 -7.01409 111.49463 23060 ft 420 kts 106°
2026-05-08 03:57 -7.02209 111.52279 22665 ft 417 kts 106°
2026-05-08 03:57 -7.03000 111.55077 22199 ft 414 kts 106°
2026-05-08 03:58 -7.03786 111.57859 21756 ft 411 kts 106°
2026-05-08 03:58 -7.04565 111.60614 21308 ft 408 kts 106°
2026-05-08 03:58 -7.05328 111.63318 20864 ft 405 kts 106°
2026-05-08 03:58 -7.06094 111.66035 20410 ft 402 kts 106°
2026-05-08 03:59 -7.06859 111.68732 19961 ft 399 kts 106°
2026-05-08 03:59 -7.07620 111.71410 19522 ft 397 kts 106°
2026-05-08 03:59 -7.08376 111.74069 19056 ft 394 kts 106°
2026-05-08 03:59 -7.09124 111.76711 18605 ft 391 kts 106°
2026-05-08 04:00 -7.09868 111.79332 18159 ft 388 kts 106°
2026-05-08 04:00 -7.10604 111.81936 17708 ft 385 kts 106°
2026-05-08 04:00 -7.11334 111.84522 17256 ft 383 kts 106°
2026-05-08 04:00 -7.12059 111.87089 16763 ft 380 kts 106°
2026-05-08 04:01 -7.12778 111.89639 16263 ft 378 kts 106°
2026-05-08 04:01 -7.13493 111.92174 15764 ft 375 kts 106°
2026-05-08 04:01 -7.14206 111.94694 15274 ft 373 kts 106°
2026-05-08 04:01 -7.14914 111.97200 14772 ft 371 kts 106°
2026-05-08 04:02 -7.15629 111.99687 14276 ft 368 kts 109°
2026-05-08 04:02 -7.16580 112.02016 13867 ft 351 kts 113°
2026-05-08 04:02 -7.17524 112.04217 13477 ft 334 kts 113°
2026-05-08 04:02 -7.18427 112.06322 13072 ft 321 kts 113°
2026-05-08 04:03 -7.19295 112.08348 12683 ft 310 kts 113°
2026-05-08 04:03 -7.20945 112.12200 11891 ft 289 kts 113°
2026-05-08 04:03 -7.21729 112.14031 11495 ft 282 kts 113°
2026-05-08 04:04 -7.22500 112.15832 11094 ft 278 kts 113°
2026-05-08 04:04 -7.23264 112.17618 10694 ft 276 kts 113°
2026-05-08 04:04 -7.24026 112.19392 10341 ft 276 kts 113°
2026-05-08 04:04 -7.24779 112.21155 10094 ft 273 kts 113°
2026-05-08 04:05 -7.25524 112.22906 9844 ft 271 kts 113°
2026-05-08 04:05 -7.26265 112.24646 9577 ft 270 kts 113°
2026-05-08 04:05 -7.27002 112.26377 9276 ft 268 kts 113°
2026-05-08 04:05 -7.27738 112.28098 8978 ft 267 kts 113°
2026-05-08 04:06 -7.28468 112.29808 8679 ft 265 kts 113°
2026-05-08 04:06 -7.29192 112.31508 8379 ft 263 kts 113°
2026-05-08 04:06 -7.29797 112.33238 8086 ft 262 kts 102°
2026-05-08 04:06 -7.30154 112.35030 7778 ft 260 kts 102°
2026-05-08 04:07 -7.30512 112.36817 7402 ft 261 kts 102°
2026-05-08 04:07 -7.30874 112.38614 6940 ft 263 kts 102°
2026-05-08 04:07 -7.31240 112.40429 6473 ft 265 kts 102°
2026-05-08 04:07 -7.31606 112.42238 6097 ft 263 kts 102°
2026-05-08 04:08 -7.31969 112.44034 5729 ft 261 kts 102°
2026-05-08 04:08 -7.32328 112.45816 5357 ft 259 kts 102°
2026-05-08 04:08 -7.32685 112.47584 4988 ft 256 kts 102°
2026-05-08 04:08 -7.33031 112.49305 4618 ft 245 kts 102°
2026-05-08 04:09 -7.33361 112.50946 4328 ft 235 kts 102°
2026-05-08 04:09 -7.33684 112.52552 4027 ft 232 kts 102°
2026-05-08 04:09 -7.34000 112.54132 3729 ft 229 kts 101°
2026-05-08 04:09 -7.34259 112.55703 3472 ft 225 kts 99°
2026-05-08 04:10 -7.34502 112.57249 3292 ft 219 kts 99°
2026-05-08 04:10 -7.34740 112.58726 3235 ft 208 kts 100°
2026-05-08 04:10 -7.34966 112.60120 3218 ft 201 kts 100°
2026-05-08 04:10 -7.35193 112.61512 3093 ft 194 kts 100°
2026-05-08 04:11 -7.35405 112.62816 2855 ft 189 kts 100°
2026-05-08 04:11 -7.35614 112.64103 2617 ft 183 kts 100°
2026-05-08 04:11 -7.35818 112.65356 2377 ft 179 kts 100°
2026-05-08 04:11 -7.36018 112.66584 2139 ft 176 kts 100°
2026-05-08 04:12 -7.36213 112.67778 1919 ft 170 kts 100°
2026-05-08 04:12 -7.36402 112.68939 1690 ft 165 kts 100°
2026-05-08 04:12 -7.36581 112.70041 1463 ft 155 kts 100°
2026-05-08 04:12 -7.36750 112.71085 1274 ft 148 kts 100°
2026-05-08 04:13 -7.36914 112.72098 1080 ft 146 kts 100°
2026-05-08 04:13 -7.37077 112.73100 891 ft 144 kts 100°
2026-05-08 04:13 -7.37239 112.74095 696 ft 144 kts 100°
2026-05-08 04:13 -7.37400 112.75090 510 ft 144 kts 99°
2026-05-08 04:14 -7.37564 112.76085 302 ft 144 kts 100°
2026-05-08 04:14 -7.37724 112.77079 119 ft 144 kts 100°
2026-05-08 04:14 -7.37881 112.78058 12 ft 133 kts 99°
2026-05-08 04:14 -7.38006 112.78826 10 ft 86 kts 99°
2026-05-08 04:15 -7.38078 112.79265 13 ft 45 kts 99°
2026-05-08 04:15 -7.38114 112.79510 10 ft 28 kts 93°
2026-05-08 04:15 -7.38098 112.79606 9 ft 17 kts 70°
2026-05-08 04:15 -7.38057 112.79722 9 ft 12 kts 69°
2026-05-08 04:16 -7.38017 112.79769 9 ft 8 kts 29°
2026-05-08 04:16 -7.37966 112.79780 9 ft 8 kts
2026-05-08 04:16 -7.37887 112.79792 9 ft 18 kts
2026-05-08 04:16 -7.37801 112.79806 9 ft 10 kts
2026-05-08 04:17 -7.37758 112.79813 9 ft 6 kts
2026-05-08 04:17 -7.37728 112.79767 9 ft 11 kts 279°
2026-05-08 04:17 -7.37718 112.79698 10 ft 9 kts 279°
2026-05-08 04:17 -7.37707 112.79641 9 ft 7 kts 288°
2026-05-08 04:18 -7.37671 112.79638 9 ft 5 kts
2026-05-08 04:18 -7.37639 112.79643 9 ft 4 kts
2026-05-08 04:18 -7.37623 112.79646 9 ft 1 kts
2026-05-08 04:18 -7.37618 112.79646 9 ft 0 kts
2026-05-08 04:19 -7.37617 112.79647 9 ft 0 kts
2026-05-08 04:19 -7.37616 112.79647 9 ft 1 kts